[keps] orb08192.2l.amsat

Ray Hoad r.hoad at att.net
Thu Jul 10 16:22:12 PDT 2008


SB KEPS @ AMSAT  $ORB08192.N
2Line Orbital Elements 08192.AMSAT

HR AMSAT ORBITAL ELEMENTS FOR AMATEUR SATELLITES IN NASA FORMAT
FROM WA5QGD FORT WORTH,TX July 10, 2008
Send Subscribe/unsubscribe to KEPS at 
http://www.amsat.org/mailman/listinfo/keps
BID: ORB08192.N

DECODE 2-LINE ELSETS WITH THE FOLLOWING KEY:
1 AAAAAU 00  0  0 BBBBB.BBBBBBBB  .CCCCCCCC  00000-0  00000-0 0  DDDZ
2 AAAAA EEE.EEEE FFF.FFFF GGGGGGG HHH.HHHH III.IIII JJ.JJJJJJJJKKKKKZ
KEY: A-CATALOGNUM B-EPOCHTIME C-DECAY D-ELSETNUM E-INCLINATION F-RAAN
G-ECCENTRICITY H-ARGPERIGEE I-MNANOM J-MNMOTION K-ORBITNUM Z-CHECKSUM

TO ALL RADIO AMATEURS BT

AO-07
1 07530U 74089B   08191.63939258 -.00000027  00000-0  10000-3 0  2220
2 07530 101.4638 222.3840 0011699 217.5844 142.4407 12.53573775539798
AO-10
1 14129U 83058B   08190.10576138 -.00000127  00000-0  10000-3 0 05283
2 14129 025.9872 206.6143 5978692 138.4081 287.2936 02.05869898188532
UO-11
1 14781U 84021B   08191.70455790  .00000696  00000-0  10000-3 0 07164
2 14781 098.1519 226.0740 0009530 007.3454 352.7805 14.79655888307187
RS-15
1 23439U 94085A   08191.89623919 -.00000039  00000-0  10000-3 0 01352
2 23439 064.8153 098.3251 0147275 118.5928 242.9902 11.27552319557526
FO-29
1 24278U 96046B   08192.63915145  .00000017  00000-0  51942-4 0  8095
2 24278 098.5855 105.8625 0351094 154.7658 207.1235 13.52938664587568
SO-33
1 25509U 98061B   08191.41739907 -.00000238  00000-0 -62157-4 0  2379
2 25509 031.4310 190.6591 0355359 221.5991 135.7099 14.28217335506792
AO-40
1 26609U 00072B   08190.30569789 -.00000155  00000-0  10000-3 0   871
2 26609 007.6097 073.4010 7917818 099.3318 347.2192 01.25582485 35302
VO-52
1 28650U 05017B   08191.83010592  .00000414  00000-0  59062-4 0 09772
2 28650 097.7897 257.8202 0028263 067.9292 292.4951 14.81482057171957
PO-63
1 29712U 07001D   08192.74881263  .00000379  00000-0  56682-4 0  6052
2 29712 097.8739 250.4929 0013386 309.4064 050.5956 14.80206417 80959
AO-16
1 20439U 90005D   08191.85259945 -.00000019  00000-0  80291-5 0 03651
2 20439 098.2302 170.7568 0011753 106.5614 253.6864 14.31797603964169
LO-19
1 20442U 90005G   08192.52499167  .00000014  00000-0  20253-4 0  2904
2 20442 098.2024 179.8627 0012911 103.9789 256.2826 14.32036036964413
AO-27
1 22825U 93061C   08191.81307716  .00000110  00000-0  59594-4 0   124
2 22825 098.3848 150.9876 0008008 188.4514 171.6527 14.29243074771004
IO-26
1 22826U 93061D   08191.93318477 -.00000034  00000-0  31540-5 0 07208
2 22826 098.3784 152.0033 0008600 185.2110 174.8988 14.29491216771118
PO-28
1 22829U 93061G   08191.83860853  .00000054  00000-0  36904-4 0 09908
2 22829 098.3661 153.0120 0009829 156.9885 203.1731 14.30192843771366
GO-32
1 25397U 98043D   08192.59310110 -.00000167  00000-0 -55704-4 0  6437
2 25397 098.3619 226.5987 0001698 139.9933 220.1374 14.23144938519546
NO-44
1 26931U 01043C   08192.58373009  .00000117  00000-0  78072-4 0  9238
2 26931 067.0508 224.3839 0007256 270.8377 089.1865 14.29528293353759
SO-50
1 27607U 02058C   08191.70763762  .00000512  00000-0  10000-3 0 06476
2 27607 064.5606 345.2435 0086193 274.9078 084.2110 14.71369411298283
CO-55
1 27844U 03031E   08191.69365489  .00000017  00000-0  28277-4 0 03487
2 27844 098.7152 199.6469 0011036 054.3085 305.9110 14.20587020260634
CO-57
1 27848U 03031J   08191.55388859  .00000019  00000-0  29416-4 0  2973
2 27848 098.7157 198.6008 0010739 057.1364 303.0848 14.20395722260588
AO-51
1 28375U 04025K   08191.76088940  .00000003  00000-0  13320-4 0 01456
2 28375 098.0695 215.0605 0085085 083.9743 277.1127 14.40613020211656
CO-56
1 28941U 06005C   08192.83844229  .00007197  25661-5  57064-4 0  2061
2 28941 098.1073 306.8057 0161458 315.2514 043.5692 15.58051348133724
CP4
1 31122U 07012F   08191.71621500  .00000549  00000-0  13192-3 0 03856
2 31122 098.0406 256.4740 0084363 258.3420 100.8266 14.55140808065352
CP3
1 31128U 07012M   08192.83439520 -.00000048  00000-0  00000 0 0  3760
2 31128 098.0390 255.2747 0101475 261.5662 097.4039 14.51958710 65367
NOAA-10
1 16969U 86073A   08191.58633975  .00000032  00000-0  31355-4 0 01932
2 16969 098.7208 213.5107 0013060 113.8153 246.4403 14.27363662134638
NOAA-11
1 19531U 88089A   08191.72645729  .00000256  00000-0  15515-3 0 02304
2 19531 098.7985 280.7385 0011625 008.3116 351.8253 14.14873713021092
NOAA-12
1 21263U 91032A   08191.80269791  .00000016  00000-0  25709-4 0 07475
2 21263 098.7658 193.7522 0013412 062.6124 297.6383 14.25537962891617
MET-3/5
1 21655U 91056A   08191.90797915  .00000051  00000-0  10000-3 0 05419
2 21655 082.5550 088.3367 0013140 322.4901 037.5304 13.17015931812577
MET-2/21
1 22782U 93055A   08192.27759929  .00000069  00000-0  49431-4 0  1928
2 22782 082.5477 093.2644 0021308 223.0127 136.9361 13.83631514750326
OKEAN-4
1 23317U 94066A   08191.73348749  .00000221  00000-0  24328-4 0  6350
2 23317 082.5404 294.0310 0023817 055.4164 304.9304 14.82622678741625
NOAA-14
1 23455U 94089A   08191.84158619 -.00000115  00000-0 -37357-4 0 02159
2 23455 098.9448 264.0972 0010401 082.2523 277.9833 14.13743708697550
SICH-1
1 23657U 95046A   08192.58312357  .00000132  00000-0  13647-4 0  4346
2 23657 082.5265 074.2308 0025420 045.5917 314.7405 14.81590608693689
NOAA-15
1 25338U 98030A   08191.76070894 -.00000081  00000-0 -16562-4 0 05363
2 25338 098.5550 183.0459 0010293 342.7042 017.3745 14.24712290528017
RESURS
1 25394U 98043A   08192.71521008  .00000014  00000-0  23870-4 0  9710
2 25394 098.3873 235.6025 0002097 105.7056 254.4355 14.24164173519790
FENGYUN1
1 25730U 99025A   08191.94434059  .00000337  00000-0  22339-3 0 04843
2 25730 098.7218 166.9573 0022300 102.5741 257.7923 14.07713413472164
OKEAN-0
1 25860U 99039A   08191.93282148 -.00000003  00000-0  67956-5 0 04152
2 25860 097.7502 181.4738 0000938 103.1119 257.0194 14.73527967482745
NOAA-16
1 26536U 00055A   08191.80394357  .00000259  00000-0  16521-3 0 00074
2 26536 099.1566 181.4769 0010893 157.4278 202.7341 14.12490031401965
NOAA-17
1 27453U 02032A   08191.81838530 -.00000041  00000-0  53103-6 0 09986
2 27453 098.5327 255.7893 0012533 046.5239 313.6974 14.23986215314023
NOAA-18
1 28654U 05018A   08191.81247946  .00000365  00000-0  22665-3 0 04969
2 28654 098.8674 132.4651 0013280 249.3614 110.6125 14.11178037161663
HUBBLE
1 20580U 90037B   08191.36137517  .00000236  00000-0  53950-5 0 01851
2 20580 028.4681 178.5942 0003626 255.4161 104.6027 15.00391268798316
PO-34
1 25520U 98064B   08192.81139306  .00000213  00000-0  73562-6 0   336
2 25520 028.4593 020.6210 0005600 184.5516 175.5039 15.17207520536755
ISS
1 25544U 98067A   08191.93326389  .00007500  00000-0  53463-4 0 08257
2 25544 051.6412 259.4045 0009157 354.0894 013.8871 15.75003968552111
CO-58
1 28895U 05043F   08191.74156351  .00000105  00000-0  31744-4 0   658
2 28895 098.0977 085.2116 0017545 343.1644 016.8999 14.59681762143777
NCUBE2
1 28897U 05043H   08191.70345455  .00000074  00000-0  25116-4 0 05972
2 28897 098.0946 085.1036 0017211 344.3373 015.7295 14.59852947136052
FCAL
1 29667U 06055J   08146.34060426  .11864717  12752-4  73624-4 0  9790
2 29667 051.6107 065.3702 0009039 260.8350 099.5042 16.53464210 82911
FALCON
1 30776U 07006E   08191.89388850  .00000137  00000-0  13044-4 0  3502
2 30776 035.4342 015.7796 0001392 262.1795 097.8763 15.03015853 73560
MAST
1 31126U 07012K   08191.82175380  .00000026  00000-0  16822-4 0 03722
2 31126 098.0379 255.3525 0093438 261.6000 097.4594 14.53432803065305
CAPE1
1 31130U 07012P   08192.89783538  .00000056  00000-0  24236-4 0  3502
2 31130 098.0382 255.3392 0101350 261.5527 097.4185 14.51975090 65160
CUTE1-7
1 32785U 08021C   08192.76060503 -.00000014  00000-0  51249-5 0   996
2 32785 097.9920 252.6221 0016083 060.4434 299.8380 14.81374619 10893
COMPASS
1 32787U 08021E   08191.47473730  .00000326  00000-0  48441-4 0 00900
2 32787 097.9885 251.3057 0017133 066.7716 293.5302 14.81431917010707
AAUSAT2
1 32788U 08021F   08191.94223214  .00000356  00000-0  52096-4 0 00930
2 32788 097.9882 251.7816 0017185 068.6965 291.6061 14.81541325010779
DO-64
1 32789U 08021G   08192.82653122  .00000215  00000-0  34255-4 0   980
2 32789 097.9917 252.6784 0016969 062.8150 297.4782 14.81425241 10901
SEEDS
1 32791U 08021J   08191.34644650  .00000344  00000-0  50956-4 0 00894
2 32791 097.9917 251.1892 0017453 065.8698 294.4347 14.81290055010656
CANX-2
1 32797U 08021L   08191.12513628  .00001593  00000-0  20789-3 0 00422
2 32797 097.9928 251.0314 0018832 071.3703 288.9466 14.81819372009335
RS-30
1 32953U 08025A   08192.59097477  .00000010  00000-0  00000 0 0   525
2 32953 082.5026 109.0384 0017778 201.6239 158.4089 12.42996762  5957
/EX






More information about the Keps mailing list